Date String (YYYY-MM-DD hh:mm:ss) UTC,Instrument flags,Ambient pressure (hPa),Sample flow (lpm),Bypass flow (lpm),Sample temperature (°C),Ambient temperature (°C),ASC tube jacket temperature (°C),LED temperature (°C),Box temperature (°C),Sample RH (%),Span deviation,Mass concentration (μg/m³),Mass concentration (μg/m³),Mass concentration (μg/m³)
DateTimeUTC,F1_M11,P_M11,Q1_M11,Q2_M11,T1_M11,T2_M11,T3_M11,T4_M11,T5_M11,U1_M11,ZSPAN_M11,X0_M11,X2_M11,X1_M11
2022-03-15 04:00:00,,0831.4,5.00,0.00,27.2,26.3,00.0,36.2,28.9,06.5,0000.0,0004.68,0001.88,0001.33
2022-03-15 04:01:00,,0831.4,4.99,0.00,27.2,26.3,00.0,36.2,28.8,06.6,0000.0,0004.81,0001.95,0001.33
2022-03-15 04:02:00,,0831.4,5.00,0.00,27.2,26.3,00.0,36.2,28.8,06.6,0000.0,0004.78,0001.98,0001.32
2022-03-15 04:03:00,,0831.4,5.00,0.00,27.1,26.3,00.0,36.2,28.8,06.6,0000.0,0004.57,0001.91,0001.32
2022-03-15 04:04:00,,0831.4,5.01,0.00,27.2,26.3,00.0,36.2,28.8,06.6,0000.0,0003.46,0001.86,0001.32
2022-03-15 04:05:00,,0831.4,5.01,0.00,27.1,26.3,00.0,36.2,28.8,06.6,0000.0,0003.04,0001.87,0001.31
2022-03-15 04:06:00,,0831.4,4.99,0.00,27.1,26.3,00.0,36.2,28.8,06.4,0000.0,0003.23,0001.90,0001.31
2022-03-15 04:07:00,,0831.4,5.00,0.00,27.1,26.2,00.0,36.2,28.8,06.0,0000.0,0003.24,0001.89,0001.31
2022-03-15 04:08:00,,0831.4,5.00,0.00,27.1,26.2,00.0,36.2,28.8,05.7,0000.0,0003.25,0001.89,0001.31
2022-03-15 04:09:00,,0831.4,5.01,0.00,27.1,26.2,00.0,36.2,28.8,05.5,0000.0,0003.43,0001.96,0001.31
2022-03-15 04:10:00,,0831.4,5.01,0.00,27.1,26.1,00.0,36.1,28.7,05.3,0000.0,0003.84,0002.05,0001.31
2022-03-15 04:11:00,,0831.4,5.00,0.00,27.0,26.1,00.0,36.1,28.7,05.2,0000.0,0003.88,0002.08,0001.32
2022-03-15 04:12:00,,0831.4,5.00,0.00,27.0,26.0,00.0,36.1,28.6,05.4,0000.0,0003.73,0002.04,0001.33
2022-03-15 04:13:00,,0831.4,5.00,0.00,26.9,26.0,00.0,36.1,28.6,05.3,0000.0,0003.60,0002.02,0001.35
2022-03-15 04:14:00,,0831.3,5.00,0.00,26.9,26.0,00.0,36.1,28.6,05.1,0000.0,0003.65,0002.03,0001.34
2022-03-15 04:15:00,,0831.4,4.98,0.00,26.9,26.0,00.0,36.0,28.6,05.3,0000.0,0003.76,0002.08,0001.36
2022-03-15 04:16:00,,0831.3,5.00,0.00,26.9,26.0,00.0,36.0,28.6,05.5,0000.0,0004.01,0002.15,0001.36
2022-03-15 04:17:00,,0831.4,5.01,0.00,26.9,26.0,00.0,36.0,28.6,05.4,0000.0,0003.89,0002.13,0001.36
2022-03-15 04:18:00,,0831.4,5.01,0.00,26.9,26.1,00.0,36.0,28.6,05.2,0000.0,0004.06,0002.18,0001.36
2022-03-15 04:19:00,,0831.4,5.01,0.00,26.9,26.1,00.0,36.0,28.6,05.2,0000.0,0004.27,0002.24,0001.36
2022-03-15 04:20:00,,0831.4,5.00,0.00,26.9,26.1,00.0,36.0,28.7,05.3,0000.0,0004.26,0002.23,0001.36
2022-03-15 04:21:00,,0831.4,4.99,0.00,26.9,26.0,00.0,36.0,28.6,05.0,0000.0,0003.99,0002.17,0001.36
2022-03-15 04:22:00,,0831.3,4.99,0.00,26.9,26.0,00.0,36.0,28.6,04.9,0000.0,0003.79,0002.11,0001.35
2022-03-15 04:23:00,,0831.3,5.00,0.00,26.9,26.0,00.0,36.0,28.6,05.0,0000.0,0003.85,0002.13,0001.34
2022-03-15 04:24:00,,0831.3,5.00,0.00,26.9,26.0,00.0,36.0,28.6,05.1,0000.0,0003.87,0002.11,0001.34
2022-03-15 04:25:00,,0831.2,5.01,0.00,26.8,25.9,00.0,35.9,28.5,05.1,0000.0,0003.91,0002.12,0001.33
2022-03-15 04:26:00,,0831.2,5.00,0.00,26.8,25.9,00.0,35.9,28.5,05.1,0000.0,0003.98,0002.15,0001.32
2022-03-15 04:27:00,,0831.3,4.98,0.00,26.8,25.9,00.0,35.9,28.5,05.0,0000.0,0003.73,0002.11,0001.33
2022-03-15 04:28:00,,0831.2,5.00,0.00,26.8,25.8,00.0,35.9,28.5,05.0,0000.0,0003.77,0002.12,0001.33
2022-03-15 04:29:00,,0831.2,5.01,0.00,26.7,25.8,00.0,35.9,28.4,04.9,0000.0,0003.78,0002.10,0001.34
2022-03-15 04:30:00,,0831.2,5.00,0.00,26.7,25.8,00.0,35.8,28.4,04.9,0000.0,0003.56,0002.04,0001.34
2022-03-15 04:31:00,,0831.2,4.98,0.00,26.7,25.8,00.0,35.8,28.4,05.0,0000.0,0003.58,0002.04,0001.34
2022-03-15 04:32:00,,0831.2,5.00,0.00,26.7,25.8,00.0,35.8,28.4,05.1,0000.0,0003.85,0002.08,0001.35
2022-03-15 04:33:00,,0831.2,5.01,0.00,26.7,25.8,00.0,35.8,28.3,05.1,0000.0,0004.03,0002.17,0001.36
2022-03-15 04:34:00,,0831.2,5.01,0.00,26.7,25.8,00.0,35.8,28.4,05.4,0000.0,0004.22,0002.19,0001.37
2022-03-15 04:35:00,,0831.2,4.99,0.00,26.7,25.8,00.0,35.8,28.4,05.4,0000.0,0004.38,0002.23,0001.37
2022-03-15 04:36:00,,0831.2,5.00,0.00,26.7,25.8,00.0,35.8,28.4,05.3,0000.0,0004.64,0002.31,0001.39
2022-03-15 04:37:00,,0831.3,5.01,0.00,26.7,25.9,00.0,35.7,28.5,05.3,0000.0,0005.34,0002.31,0001.40
2022-03-15 04:38:00,,0831.4,4.99,0.00,26.7,25.9,00.0,35.7,28.5,05.3,0000.0,0005.45,0002.33,0001.42
2022-03-15 04:39:00,,0831.4,5.00,0.00,26.7,25.9,00.0,35.7,28.5,05.2,0000.0,0005.52,0002.38,0001.44
2022-03-15 04:40:00,,0831.4,5.01,0.00,26.7,25.9,00.0,35.7,28.5,05.2,0000.0,0005.51,0002.42,0001.47
2022-03-15 04:41:00,,0831.3,5.00,0.00,26.7,25.9,00.0,35.7,28.5,05.2,0000.0,0005.67,0002.48,0001.48
2022-03-15 04:42:00,,0831.3,4.99,0.00,26.7,25.9,00.0,35.7,28.5,05.2,0000.0,0005.95,0002.55,0001.49
2022-03-15 04:43:00,,0831.2,5.00,0.00,26.7,25.9,00.0,35.7,28.5,05.2,0000.0,0005.82,0002.57,0001.50
2022-03-15 04:44:00,,0831.2,5.01,0.00,26.7,26.0,00.0,35.7,28.5,05.2,0000.0,0005.87,0002.56,0001.50
2022-03-15 04:45:00,,0831.2,5.01,0.00,26.8,26.0,00.0,35.7,28.5,05.3,0000.0,0005.84,0002.60,0001.52
2022-03-15 04:46:00,,0831.2,4.98,0.00,26.8,26.0,00.0,35.7,28.6,05.3,0000.0,0005.80,0002.62,0001.53
2022-03-15 04:47:00,,0831.2,5.01,0.00,26.8,26.0,00.0,35.7,28.6,05.3,0000.0,0005.70,0002.60,0001.54
2022-03-15 04:48:00,,0831.3,5.00,0.00,26.8,26.0,00.0,35.7,28.6,05.3,0000.0,0005.02,0002.59,0001.56
2022-03-15 04:49:00,,0831.4,5.01,0.00,26.8,26.0,00.0,35.7,28.6,05.3,0000.0,0004.90,0002.62,0001.57
2022-03-15 04:50:00,,0831.4,4.99,0.00,26.8,26.0,00.0,35.7,28.6,05.3,0000.0,0004.80,0002.60,0001.57
2022-03-15 04:51:00,,0831.4,5.00,0.00,26.8,26.0,00.0,35.7,28.6,05.3,0000.0,0004.89,0002.64,0001.57
2022-03-15 04:52:00,,0831.4,5.01,0.00,26.8,26.0,00.0,35.7,28.6,05.4,0000.0,0004.96,0002.66,0001.58
2022-03-15 04:53:00,,0831.4,4.99,0.00,26.8,26.0,00.0,35.7,28.6,05.6,0000.0,0005.10,0002.65,0001.59
2022-03-15 04:54:00,,0831.4,5.01,0.00,26.8,26.0,00.0,35.7,28.6,06.2,0000.0,0004.90,0002.60,0001.59
2022-03-15 04:55:00,,0831.3,5.00,0.00,26.8,26.0,00.0,35.7,28.6,06.5,0000.0,0004.70,0002.53,0001.58
2022-03-15 04:56:00,,0831.4,4.99,0.00,26.8,26.0,00.0,35.7,28.6,06.8,0000.0,0004.51,0002.48,0001.56
2022-03-15 04:57:00,,0831.4,5.00,0.00,26.8,26.0,00.0,35.7,28.6,06.7,0000.0,0004.36,0002.41,0001.54
2022-03-15 04:58:00,,0831.3,5.00,0.00,26.8,26.0,00.0,35.7,28.6,06.3,0000.0,0004.14,0002.34,0001.53
2022-03-15 04:59:00,,0831.4,5.01,0.00,26.8,26.0,00.0,35.7,28.6,06.0,0000.0,0004.21,0002.35,0001.52
